sat.trackr.live / text

‹ back to catalog

STARLINK-5722

NORAD 55610 · 2023-020AT

PAYLOAD ACTIVE UNKNOWN

§ Identity

Operator
Country
US
Launch date
2023-02-12
Launch site
AFETR
Launch vehicle
Mass (kg)
RCS (m²)

Purposes: comms

External: N2YO · Heavens-Above · Gunter

§ Orbital elements

Epoch: 2026-09-19T22:28:12.680832Z

Period
94.27 min
Inclination
43.0060°
Eccentricity
0.0001845
Mean motion
15.27577376 rev/d
Perigee alt
481.8 km
Apogee alt
484.3 km
Semi-major
6,861.2 km
B*
1.5562e-5
RAAN
337.4930°
Arg perigee
288.7746°
Mean anomaly
71.2906°
Rev number
19,874

§ Raw data

STARLINK-57221 55610U 23020AT  26262.93625788  .00000166  00000+0  15562-4 0  99952 55610  43.0060 337.4930 0001845 288.7746  71.2906 15.27577376198745

JSON: /api/v1/satellites/55610 · /tle

For live sub-satellite position, see the globe view (requires WebGL).

§ Visibility from observer

Set your observer location to see the next 7 days of passes ≥ 10°. The values pass through the URL so the page stays shareable.

No JS? Fill the form by hand. The geolocation button needs JavaScript.